Zurück zum Katalog

STARLINK-31963

AktivKommunikationVLEO
NORAD 59893·PAYLOAD·🇺🇸 United States

Gestartet May 28, 2024 von Cape Canaveral Space Force Station

Loading…

Nächste Überflüge (nächste 24 Stunden)

TLE

AktuellSource: CelesTrak SupGP

Epoche: Sep 15, 2026, 03:33 UTC

1 59893C 24100J   26258.14840278  .00055482  00000+0  20095-2 0  2587
2 59893  43.0004 135.5737 0001397 275.8593 333.2933 15.27552109    11

Verfolge STARLINK-31963 in Echtzeit mit AllMySat

Download on the App Store